Weather History for KCGS - August, 2013

Change the Weather History Date:

Saturday, August 31, 2013

  Actual Average Record
Temperature  
Mean Temperature 82 °F -  
Max Temperature 91 °F 86 °F 98 °F (1962)
Min Temperature 73 °F 64 °F 46 °F (1986)
Cooling Degree Days 17    
Growing Degree Days 32 (Base 50)    
Moisture  
Dew Point 72 °F    
Average Humidity 72    
Maximum Humidity 91    
Minimum Humidity 50    
Precipitation  
Precipitation 0.00 in - - ()
Sea Level Pressure  
Sea Level Pressure 29.85 in    
Wind  
Wind Speed 4 mph (South)    
Max Wind Speed 9 mph    
Max Gust Speed 16 mph    
Visibility 10 miles    
Events      
Averages and records for this station are not official NWS values.
T = Trace of Precipitation, MM = Missing Value Source: NWS Daily Summary

Daily Weather History Graph

Daily Weather History Graph

Search for Another Location

Airport or City:

Trip Planner

Search our weather history database for the weather conditions in past years. The results will help you decide how hot, cold, wet, or windy it might be!

Date:

Astronomy

Aug. 31, 2013 Rise Set
Actual Time 6:35 AM EDT 7:39 PM EDT
Civil Twilight 6:08 AM EDT 8:06 PM EDT
Nautical Twilight 5:35 AM EDT 8:39 PM EDT
Astronomical Twilight 5:01 AM EDT 9:12 PM EDT
Moon 2:04 AM EDT (8/31) 4:34 PM EDT (8/31)
Length of Visible Light 13h 58m
Length of Day
13h 03m
Waning Crescent, 21% of the Moon is Illuminated
Aug 31
Waning Crescent
Sep 5
New
Sep 12
First Quarter
Sep 19
Full
Sep 26
Last Quarter

Hourly Weather History & Observations

Time (EDT) Temp. Heat Index Dew Point Humidity Pressure Visibility Wind Dir Wind Speed Gust Speed Precip Events Conditions
12:10 AM 77.9 °F - 71.1 °F 79% 29.91 in 10.0 mi South 4.6 mph - N/A   Clear
12:30 AM 77.4 °F - 71.1 °F 81% 29.91 in 10.0 mi South 4.6 mph - N/A   Clear
12:50 AM 77.2 °F - 71.1 °F 81% 29.90 in 10.0 mi South 5.8 mph - N/A   Clear
1:10 AM 77.0 °F - 70.9 °F 81% 29.90 in 10.0 mi South 5.8 mph - N/A   Clear
1:30 AM 76.6 °F - 71.1 °F 83% 29.89 in 10.0 mi SSW 4.6 mph - N/A   Clear
1:50 AM 76.3 °F - 70.9 °F 83% 29.89 in 10.0 mi South 4.6 mph - N/A   Clear
2:10 AM 76.1 °F - 70.9 °F 84% 29.88 in 10.0 mi SSW 4.6 mph - N/A   Clear
2:30 AM 76.1 °F - 70.9 °F 84% 29.88 in 10.0 mi SSW 4.6 mph - N/A   Clear
2:50 AM 76.1 °F - 71.1 °F 84% 29.88 in 10.0 mi Calm Calm - N/A   Clear
3:10 AM 75.7 °F - 71.1 °F 85% 29.88 in 10.0 mi Calm Calm - N/A   Clear
3:35 AM 75.4 °F - 71.1 °F 86% 29.88 in 10.0 mi Calm Calm - N/A   Clear
3:55 AM 75.2 °F - 71.1 °F 87% 29.87 in 10.0 mi Calm Calm - N/A   Clear
4:15 AM 75.2 °F - 71.2 °F 87% 29.87 in 10.0 mi Calm Calm - N/A   Clear
4:35 AM 75.0 °F - 71.1 °F 87% 29.87 in 10.0 mi Calm Calm - N/A   Clear
4:55 AM 74.7 °F - 71.2 °F 89% 29.87 in 10.0 mi Calm Calm - N/A   Clear
5:15 AM 74.3 °F - 71.2 °F 90% 29.87 in 10.0 mi South 3.5 mph - N/A   Clear
5:35 AM 74.3 °F - 71.2 °F 90% 29.87 in 10.0 mi Calm Calm - N/A   Clear
5:55 AM 73.9 °F - 71.1 °F 91% 29.87 in 10.0 mi South 3.5 mph - N/A   Clear
6:15 AM 73.9 °F - 71.2 °F 91% 29.87 in 10.0 mi South 3.5 mph - N/A   Clear
6:35 AM 73.8 °F - 70.9 °F 91% 29.87 in 10.0 mi Calm Calm - N/A   Clear
6:55 AM 73.8 °F - 70.9 °F 91% 29.87 in 10.0 mi Calm Calm - N/A   Clear
7:15 AM 73.9 °F - 70.9 °F 90% 29.88 in 10.0 mi Calm Calm - N/A   Clear
7:35 AM 74.7 °F - 71.2 °F 89% 29.87 in 10.0 mi Calm Calm - N/A   Clear
7:55 AM 75.2 °F - 71.2 °F 87% 29.88 in 10.0 mi South 3.5 mph - N/A   Clear
8:15 AM 76.1 °F - 71.2 °F 85% 29.88 in 10.0 mi Calm Calm - N/A   Clear
8:35 AM 77.2 °F - 71.2 °F 82% 29.88 in 10.0 mi SSW 3.5 mph - N/A   Clear
8:55 AM 78.1 °F - 71.4 °F 80% 29.88 in 10.0 mi Calm Calm - N/A   Clear
9:15 AM 78.8 °F - 71.2 °F 78% 29.88 in 10.0 mi Calm Calm - N/A   Clear
9:35 AM 80.1 °F 83.7 °F 71.4 °F 75% 29.89 in 10.0 mi South 4.6 mph - N/A   Clear
9:55 AM 80.2 °F 84.0 °F 71.6 °F 75% 29.89 in 10.0 mi SSE 3.5 mph - N/A   Clear
10:15 AM 81.7 °F 86.3 °F 71.8 °F 72% 29.89 in 10.0 mi South 4.6 mph - N/A   Clear
10:35 AM 82.4 °F 87.4 °F 72.1 °F 71% 29.88 in 10.0 mi South 3.5 mph - N/A   Clear
10:55 AM 83.3 °F 88.4 °F 71.8 °F 68% 29.88 in 10.0 mi South 5.8 mph - N/A   Clear
11:15 AM 84.9 °F 91.1 °F 72.3 °F 66% 29.88 in 10.0 mi SSW 3.5 mph - N/A   Clear
11:35 AM 84.7 °F 90.7 °F 72.1 °F 66% 29.87 in 10.0 mi SSE 5.8 mph - N/A   Clear
11:55 AM 86.2 °F 92.6 °F 72.1 °F 63% 29.87 in 10.0 mi SSW 3.5 mph - N/A   Clear
12:15 PM 86.7 °F 93.3 °F 72.1 °F 62% 29.86 in 10.0 mi SSE 5.8 mph - N/A   Clear
12:35 PM 87.6 °F 93.9 °F 71.8 °F 59% 29.86 in 10.0 mi SSE 5.8 mph - N/A   Clear
12:55 PM 87.6 °F 93.5 °F 71.4 °F 58% 29.85 in 10.0 mi SW 4.6 mph - N/A   Clear
1:15 PM 88.2 °F 95.0 °F 72.1 °F 59% 29.84 in 10.0 mi WSW 3.5 mph - N/A   Clear
1:35 PM 89.1 °F 96.0 °F 72.0 °F 57% 29.85 in 10.0 mi WSW 5.8 mph - N/A   Clear
1:55 PM 90.3 °F 97.7 °F 72.1 °F 55% 29.84 in 10.0 mi WSW 6.9 mph - N/A   Scattered Clouds
2:15 PM 90.3 °F 95.7 °F 69.8 °F 51% 29.84 in 10.0 mi SW 5.8 mph - N/A   Scattered Clouds
2:35 PM 90.3 °F 96.7 °F 70.9 °F 53% 29.84 in 10.0 mi SSW 4.6 mph - N/A   Clear
2:50 PM 90.5 °F 95.5 °F 69.8 °F 50% 29.83 in 10.0 mi South 6.9 mph - N/A   Clear
3:15 PM 91.4 °F 97.3 °F 70.3 °F 50% 29.82 in 10.0 mi South 6.9 mph - N/A   Clear
3:35 PM 91.4 °F 97.3 °F 70.5 °F 50% 29.81 in 10.0 mi SSW 8.1 mph 16.1 mph N/A   Scattered Clouds
3:50 PM 91.9 °F 98.4 °F 70.7 °F 50% 29.81 in 10.0 mi South 6.9 mph - N/A   Mostly Cloudy
4:15 PM 91.0 °F 97.1 °F 70.5 °F 51% 29.81 in 10.0 mi SW 8.1 mph - N/A   Scattered Clouds
4:35 PM 89.8 °F 95.6 °F 70.7 °F 53% 29.81 in 10.0 mi South 8.1 mph - N/A   Scattered Clouds
4:55 PM 89.4 °F 95.8 °F 71.2 °F 55% 29.81 in 10.0 mi South 9.2 mph - N/A   Clear
5:15 PM 89.1 °F 95.0 °F 71.1 °F 55% 29.80 in 10.0 mi South 4.6 mph - N/A   Scattered Clouds
5:35 PM 88.7 °F 95.2 °F 71.6 °F 57% 29.80 in 10.0 mi SSW 5.8 mph - N/A   Clear
5:55 PM 88.3 °F 94.5 °F 71.6 °F 57% 29.80 in 10.0 mi South 5.8 mph - N/A   Clear
6:15 PM 88.0 °F 94.7 °F 71.8 °F 59% 29.80 in 10.0 mi South 3.5 mph - N/A   Clear
6:35 PM 87.8 °F 93.8 °F 71.6 °F 58% 29.80 in 10.0 mi South 4.6 mph - N/A   Clear
6:55 PM 87.3 °F 94.5 °F 73.0 °F 62% 29.80 in 10.0 mi South 3.5 mph - N/A   Clear
7:15 PM 87.1 °F 94.9 °F 73.8 °F 64% 29.81 in 10.0 mi South 4.6 mph - N/A   Clear
7:35 PM 86.9 °F 95.4 °F 74.3 °F 66% 29.81 in 10.0 mi SSW 4.6 mph - N/A   Clear
7:55 PM 86.2 °F 94.6 °F 74.5 °F 68% 29.82 in 10.0 mi South 5.8 mph - N/A   Clear
8:15 PM 85.6 °F 94.2 °F 75.0 °F 70% 29.83 in 10.0 mi South 4.6 mph - N/A   Clear
8:35 PM 85.1 °F 93.7 °F 75.2 °F 72% 29.83 in 10.0 mi South 5.8 mph - N/A   Clear
8:55 PM 84.7 °F 93.2 °F 75.4 °F 73% 29.84 in 10.0 mi South 4.6 mph - N/A   Clear
9:15 PM 84.2 °F 92.6 °F 75.4 °F 75% 29.83 in 10.0 mi South 3.5 mph - N/A   Clear
9:35 PM 83.7 °F 91.7 °F 75.6 °F 76% 29.84 in 10.0 mi South 3.5 mph - N/A   Clear
9:55 PM 83.3 °F 91.1 °F 75.6 °F 77% 29.84 in 10.0 mi Calm Calm - N/A   Clear
10:15 PM 82.9 °F 90.5 °F 75.6 °F 78% 29.84 in 10.0 mi Calm Calm - N/A   Clear
10:35 PM 82.4 °F 89.8 °F 75.6 °F 80% 29.84 in 10.0 mi South 4.6 mph - N/A   Clear
10:55 PM 81.9 °F 88.9 °F 75.7 °F 82% 29.84 in 10.0 mi Calm Calm - N/A   Clear
11:15 PM 81.9 °F 87.0 °F 72.9 °F 74% 29.84 in 10.0 mi Calm Calm - N/A   Clear
11:35 PM 81.1 °F 85.6 °F 72.1 °F 74% 29.84 in 10.0 mi Calm Calm - N/A   Clear
11:55 PM 80.4 °F 84.1 °F 70.9 °F 73% 29.84 in 10.0 mi Calm Calm - N/A   Clear